Theta_e
306 300 299 301 301 302 302 303 303 303 300 301 301 300 302 302 301 300 301 302 302 303 303 303 304 304 304 305 304 302 302 302 301 301 300 299 299 298 297 296 296 295 295 294
301 301 302 302 302 302 303 301 301 301 300 299 298 299 300 299 299 300 300 300 301 302 302 303 303 304 304 303 303 302 301 301 300 299 299 298 298 297 296 295 295 294 294 293
303 302 302 303 300 302 302 301 301 301 298 297 295 297 299 298 301 301 300 300 301 301 302 303 303 303 303 303 302 301 300 299 299 298 298 298 298 297 296 294 294 294 293 294
301 301 302 301 301 299 302 299 300 299 294 296 295 298 298 298 298 299 301 300 300 300 301 303 303 302 302 302 299 299 299 298 298 298 298 298 297 296 294 294 293 293 294 293
300 301 301 300 300 299 300 298 298 295 289 291 293 291 297 298 300 298 299 301 301 301 301 302 302 302 301 299 298 298 298 298 298 297 297 297 296 294 294 293 292 293 293 293
299 299 298 299 298 298 297 296 294 292 286 293 287 291 299 300 300 299 298 300 301 301 301 301 300 299 299 298 298 298 298 298 296 296 295 295 294 294 293 292 292 292 292 293
297 300 298 298 299 298 295 290 292 295 294 298 281 292 299 300 298 296 297 300 301 301 300 299 299 299 298 298 298 298 298 298 295 294 294 293 293 293 292 293 292 292 293 293
292 296 293 297 298 298 296 290 293 293 296 296 283 294 300 296 297 297 299 300 301 300 299 298 299 300 299 299 299 298 297 297 295 293 293 293 293 292 292 292 292 293 293 293
293 296 296 296 296 295 294 290 292 286 278 287 292 293 297 296 292 296 298 299 300 301 300 299 299 300 301 300 299 297 297 296 294 293 293 293 292 292 292 292 293 294 294 293
296 293 290 296 296 293 291 292 292 287 293 290 291 286 299 297 295 292 293 297 300 301 301 299 299 301 300 299 297 297 296 295 295 295 294 292 292 292 292 292 295 294 294 293
291 290 291 295 289 289 290 289 288 288 292 292 290 296 291 293 294 291 294 298 300 301 301 299 300 301 300 298 298 298 296 295 296 295 293 292 292 292 292 294 294 294 293 293
296 294 290 294 294 293 293 290 293 293 291 288 292 297 293 290 286 291 297 297 297 298 300 299 299 301 301 299 298 298 296 297 297 296 295 293 292 292 293 295 294 293 293 292
297 289 288 292 292 292 292 294 292 288 292 290 293 299 287 286 289 296 296 299 300 300 298 298 298 298 301 300 301 299 297 297 297 297 295 293 292 292 293 294 293 293 293 291
297 296 291 292 288 287 292 293 294 292 287 296 298 298 295 297 298 298 299 300 300 300 300 300 298 298 297 298 297 300 299 297 296 297 295 293 292 292 293 293 292 293 292 292
295 293 294 293 291 287 293 291 291 294 296 294 298 297 290 296 297 298 298 298 298 298 298 299 300 300 299 299 300 300 300 296 295 295 295 292 292 291 292 292 291 292 292 291
295 293 289 296 295 296 297 297 296 295 295 294 296 296 296 297 297 296 297 297 297 297 298 298 299 299 299 299 299 299 298 295 295 294 294 292 291 291 290 293 292 291 292 292
296 292 288 291 289 289 292 292 295 295 287 294 295 296 295 294 295 296 296 297 297 297 297 297 297 298 299 299 298 297 295 294 294 294 293 292 291 291 290 291 292 289 291 292
297 296 294 294 290 288 291 293 292 290 292 291 294 293 292 293 293 294 296 296 295 295 295 296 297 297 298 299 298 297 295 293 293 293 293 292 291 291 290 290 290 289 289 290
295 296 296 293 282 291 294 294 293 293 293 293 291 291 291 292 293 294 294 293 293 293 294 294 296 297 298 299 296 294 294 296 296 295 294 293 291 290 290 290 290 289 289 290
289 294 295 284 290 286 291 291 292 293 292 291 290 289 289 291 293 293 293 291 292 293 294 296 295 297 298 297 296 297 297 296 296 296 295 292 290 290 290 290 289 289 289 291
290 292 295 294 295 291 292 289 291 290 291 289 288 288 289 291 292 291 291 291 291 292 293 295 295 295 296 296 297 296 296 296 296 295 294 292 291 290 290 289 290 289 290 289
287 282 284 280 288 292 289 289 287 288 288 287 287 287 287 288 289 289 289 291 291 291 292 292 295 295 293 295 295 296 297 296 295 295 295 294 291 290 290 290 289 289 289 289
287 288 284 285 285 288 289 288 288 287 287 287 287 287 287 287 288 288 289 290 290 290 289 289 290 296 296 294 295 296 297 296 295 295 295 294 292 290 290 290 289 289 289 289
286 288 285 285 286 287 287 287 287 287 287 287 287 287 287 287 287 287 287 288 289 288 288 288 290 295 296 296 295 296 296 296 295 295 295 295 293 291 290 290 289 289 289 289
288 284 282 285 286 286 287 287 287 287 288 288 287 287 287 287 287 287 287 287 288 287 288 288 288 293 295 296 297 297 295 295 296 295 295 295 294 293 291 290 289 289 289 289
288 287 285 286 287 286 286 287 287 287 287 288 287 288 287 287 287 287 287 287 287 287 288 288 289 291 294 295 295 296 295 296 296 296 295 295 295 294 293 291 289 289 289 289
Wind_Speed
5 6 2 2 2 1 2 2 2 3 4 4 4 10 18 19 17 21 27 30 33 30 24 24 24 24 23 23 20 18 17 16 18 18 17 17 18 19 21 21 22 23 23 23
6 3 2 0 4 3 4 2 4 5 2 3 5 16 19 13 7 7 13 15 19 18 21 20 25 24 23 21 18 16 15 16 17 17 18 20 21 22 22 22 22 22 23 24
5 1 3 3 5 4 2 2 2 3 7 1 8 8 6 3 4 8 7 9 8 14 19 20 25 26 23 20 16 13 12 14 16 18 21 22 22 22 23 22 21 22 24 26
5 4 3 4 4 2 1 3 2 2 5 2 5 5 7 3 7 4 5 5 0 10 15 19 23 24 21 16 13 11 11 14 18 20 22 22 22 23 22 22 22 23 25 26
3 4 5 5 1 2 1 3 2 3 4 4 6 3 8 4 5 6 8 5 6 10 14 18 20 19 16 15 10 10 13 17 20 22 21 21 22 22 21 22 24 25 25 27
1 2 3 1 2 3 2 3 5 3 3 3 3 3 6 3 4 4 4 10 10 12 15 16 18 20 18 11 11 13 16 17 18 18 18 20 21 21 22 22 25 25 27 29
5 2 3 4 2 2 5 6 4 6 4 4 2 1 10 7 6 5 7 15 15 16 18 19 21 21 16 15 17 18 18 18 16 17 18 18 19 20 21 23 24 26 29 31
3 6 3 5 3 2 3 5 4 5 2 5 2 6 6 5 5 9 11 13 18 20 20 20 19 20 18 18 21 22 20 17 16 16 16 17 18 20 21 22 24 27 31 31
3 4 1 4 3 3 2 2 2 6 1 3 3 8 10 3 6 12 12 15 21 23 24 22 20 17 17 21 20 20 18 16 16 15 16 17 18 20 20 21 24 28 29 29
3 4 1 4 2 6 4 2 4 3 2 5 5 7 6 8 8 6 8 16 23 23 22 22 20 16 16 19 19 17 18 17 16 16 16 16 17 19 20 21 23 25 27 26
4 4 5 2 3 6 2 2 4 3 4 4 2 6 7 8 8 7 13 21 23 26 26 25 22 17 14 17 15 13 17 17 17 16 16 16 18 19 18 20 21 23 25 23
1 3 2 9 1 3 4 6 4 4 6 3 2 10 6 8 5 9 19 16 18 28 31 30 30 26 19 16 14 12 16 19 17 16 17 18 18 18 17 17 19 22 23 21
4 2 4 8 4 4 2 4 3 2 2 6 3 7 2 6 8 11 16 22 22 23 24 36 39 40 32 21 18 17 19 22 19 19 18 18 18 17 15 15 18 20 21 20
5 4 8 7 6 4 3 4 5 5 3 8 19 30 10 18 19 23 35 42 47 47 45 37 38 48 49 43 36 26 27 28 23 21 20 18 17 16 15 14 16 18 18 18
4 5 5 8 8 5 12 7 9 13 13 10 33 25 4 15 21 35 34 43 46 47 46 47 49 46 43 44 45 46 40 33 27 23 20 17 18 17 16 15 15 16 16 16
2 4 1 8 9 15 21 16 20 20 20 17 26 34 19 35 38 32 32 37 39 44 44 45 43 43 43 42 42 37 33 32 28 24 20 18 18 18 18 16 15 14 14 14
5 2 3 6 3 6 9 15 19 12 5 11 14 22 14 17 25 31 25 38 42 43 44 44 44 41 36 30 25 23 27 28 27 23 20 19 18 18 18 16 16 14 12 13
8 4 3 6 4 3 7 2 5 8 6 10 16 16 16 19 28 31 29 33 33 36 38 39 38 35 29 29 28 26 25 26 24 22 21 20 19 18 17 16 15 13 12 13
17 11 4 3 4 9 11 7 5 5 6 3 4 10 25 37 35 16 23 39 39 40 39 43 40 37 28 25 24 22 22 22 21 21 21 20 18 17 16 14 14 12 10 10
2 11 7 1 4 7 5 4 15 18 21 6 19 27 34 32 16 10 36 55 56 51 46 43 47 31 23 22 24 21 20 19 19 19 18 18 19 17 15 13 12 10 9 7
3 2 14 12 9 8 1 12 19 1 10 35 40 36 32 19 27 43 43 43 48 49 51 46 40 22 16 20 20 19 17 17 13 15 18 21 19 16 14 14 12 11 9 9
6 4 3 1 4 15 14 19 4 21 45 43 41 38 37 39 43 43 45 40 42 39 43 41 34 28 16 17 17 17 16 11 13 17 20 19 18 16 15 15 13 12 10 10
3 7 4 9 6 12 38 33 39 38 34 44 44 46 41 42 44 44 42 42 45 43 45 45 39 30 20 19 18 18 14 13 16 15 16 17 17 17 16 16 14 13 12 11
4 7 4 4 2 20 38 42 38 38 36 41 43 45 47 45 49 48 48 47 43 43 40 41 39 39 37 25 22 22 20 17 19 17 15 16 17 18 17 17 16 15 14 13
7 4 5 11 19 30 27 34 35 42 44 46 46 46 48 47 49 49 48 46 47 45 43 39 41 37 33 22 22 21 22 24 21 20 17 18 17 17 18 18 17 15 14 15
10 8 6 15 30 27 31 41 52 49 47 47 44 48 52 44 44 50 45 46 46 45 47 42 42 35 32 26 26 23 21 23 21 21 20 20 20 18 19 21 19 18 16 16
Wind_Direction
22 65 76 332 6 23 87 72 299 290 22 339 266 283 283 291 279 273 270 266 257 254 243 228 220 222 220 218 228 244 253 261 261 266 266 268 273 279 285 292 296 297 298 299
26 88 317 297 33 59 61 70 297 292 40 3 338 292 282 285 261 282 294 290 260 237 227 214 209 213 212 220 231 243 254 254 261 266 270 271 278 284 289 293 293 295 298 301
114 127 18 75 39 46 58 143 340 264 328 359 331 292 313 322 298 308 325 321 254 225 210 201 201 207 212 218 236 248 249 257 264 268 270 274 280 286 292 295 295 297 297 299
79 10 62 54 77 63 360 9 33 10 37 277 19 278 302 328 301 285 311 2 181 196 197 197 200 202 210 219 216 224 247 260 266 268 272 277 281 289 295 294 295 296 298 300
268 19 36 57 48 60 142 38 66 92 91 46 350 66 272 325 294 260 239 221 182 178 183 183 187 197 197 193 210 246 263 271 272 270 271 273 280 288 291 294 297 300 301 303
78 43 51 76 68 54 79 55 42 63 95 19 272 110 287 261 226 295 232 219 203 196 195 193 187 185 181 208 251 268 276 280 274 268 268 273 279 284 290 296 300 303 305 307
351 17 360 32 35 40 59 49 337 354 9 230 303 40 245 259 269 248 241 215 204 196 193 191 192 191 208 257 279 286 286 287 276 273 270 270 274 283 292 297 300 303 307 309
102 332 29 353 60 180 54 129 149 229 279 276 354 244 248 223 302 256 277 234 208 202 203 206 208 211 241 269 281 286 285 278 277 273 267 270 278 286 294 298 305 310 312 313
99 287 10 44 21 67 279 39 164 98 78 41 261 288 295 308 278 249 253 224 215 214 211 210 210 225 256 268 274 280 276 275 273 269 270 275 281 289 297 302 308 313 315 313
168 350 324 302 74 34 130 143 35 10 332 300 292 280 241 297 286 276 266 233 224 223 223 220 218 238 259 267 272 279 272 272 267 268 268 273 284 292 297 304 313 318 317 315
122 95 290 13 184 182 38 360 37 125 155 204 279 259 217 237 254 266 274 248 238 231 233 226 224 242 262 273 280 283 266 262 263 266 271 279 286 291 296 307 317 321 320 319
84 134 263 229 127 165 170 190 159 134 269 229 169 271 241 244 284 311 301 288 273 258 247 238 232 244 262 290 295 294 269 260 264 268 273 279 284 288 292 306 318 325 325 325
172 338 353 336 14 360 210 201 163 117 87 197 176 258 288 287 322 314 303 317 319 317 288 255 244 243 253 276 296 300 274 263 262 264 268 273 278 281 287 303 320 326 326 326
160 188 183 213 205 145 206 201 213 161 160 271 242 271 302 292 298 302 300 302 302 299 294 287 270 253 256 262 275 280 283 260 256 258 262 270 276 277 281 296 318 325 326 327
149 226 229 244 247 213 250 215 222 225 242 225 273 268 279 277 293 292 295 291 293 292 289 284 281 278 272 269 272 272 268 246 247 252 258 268 273 274 274 286 313 319 328 329
180 272 110 276 233 246 262 253 245 237 245 253 263 274 266 280 284 288 286 289 286 294 296 298 294 288 282 279 276 267 234 235 241 247 254 259 268 270 270 278 301 311 325 328
172 164 38 266 347 307 286 232 237 232 183 217 253 263 291 280 285 300 320 305 298 301 307 307 301 292 286 278 266 240 231 234 238 242 246 255 264 268 268 272 288 300 313 328
228 194 196 283 5 275 251 219 191 195 218 228 262 284 337 328 319 318 314 311 321 326 325 319 312 306 284 275 254 244 227 230 235 242 244 250 258 265 266 270 280 293 301 304
217 225 250 249 198 293 292 301 348 341 298 255 347 336 335 333 321 328 339 340 338 337 341 334 320 298 287 260 234 226 224 231 237 239 242 246 251 260 263 266 275 286 303 286
157 216 207 112 213 242 226 122 8 349 302 22 344 330 324 328 307 315 315 312 314 321 322 333 329 296 265 224 218 223 229 236 244 245 242 241 245 254 259 261 268 274 283 285
121 201 221 234 249 268 197 15 3 28 304 324 316 311 308 295 278 291 296 296 301 303 307 323 332 304 259 226 223 224 231 245 254 246 233 234 240 249 253 252 259 262 266 273
172 166 195 24 253 261 2 341 344 298 303 303 300 298 293 291 291 291 292 289 290 300 300 308 312 322 285 254 236 233 240 248 245 240 233 235 237 243 249 249 252 255 256 267
284 196 200 189 219 303 307 292 293 293 290 290 291 293 292 292 288 288 286 287 290 294 295 301 305 282 290 283 277 258 252 255 244 243 238 238 233 238 244 246 248 250 255 257
269 220 228 341 195 288 288 290 289 288 288 293 292 290 291 290 289 285 282 282 276 283 285 293 292 276 278 288 283 284 266 256 248 242 240 241 236 237 242 247 243 247 249 253
218 177 215 263 286 286 291 296 298 304 304 302 296 290 289 289 284 282 280 274 274 278 279 287 281 276 276 271 272 274 272 252 246 247 244 247 243 242 243 245 247 245 243 248
203 244 245 270 284 285 288 296 302 303 301 301 298 300 301 293 288 288 274 268 270 268 277 276 276 271 266 264 264 261 262 242 243 248 248 250 253 247 246 246 242 245 240 245